Preview of NWS' New Version of Forecast
This preview is not operational and should not be used for support decisions.

Regional Weather Roundup (RWR)

Issued by National Weather Service (NWS)

                            
000
ASUS45 KABQ 190101
RWRNM 
NEW MEXICO REGIONAL WEATHER ROUNDUP
NATIONAL WEATHER SERVICE ALBUQUERQUE NM
600 PM MST MON FEB 18 2019

NOTE: "FAIR" MEANS FEW OR NO CLOUDS BELOW 12,000 FEET AGL WITH NO
       SIGNIFICANT WEATHER OR OBSTRUCTIONS TO VISION.

      THIS PRODUCT IS RELEASED AS TWO VERSIONS.  ONE VERSION NEAR
      THE TOP OF THE HOUR CONTAINING PRELIMINARY DATA FROM ALBUQUERQUE
      AND OTHER STATIONS.  A FINAL VERSION WITH ADDITIONAL DATA IS 
      ISSUED ABOUT 10 MINUTES AFTER THE HOUR.
 
NMZ501-503-504-510>518-190200-
NORTHWEST PLATEAU/NORTHCENTRAL MOUNTAINS
  
CITY           SKY/WX    TMP DP  RH WIND       PRES   REMARKS
FARMINGTON     SNOW      28  27  96 CALM      29.83R VSB 1/2          
LOS ALAMOS     LGT SNOW  19  15  85 S15       29.90S WCI   5          
SANTA FE       CLOUDY    23  14  68 SE16G23   29.92S WCI  10          
TAOS           CLOUDY    26  16  65 SW13      29.89R WCI  15          
ANGEL FIRE       N/A     16  10  76 SW12      29.88R WCI   3          

$$
NMZ402-403-502-505>509-190200-
WESTCENTRAL MOUNTAINS/SOUTHWEST MOUNTAINS
  
CITY           SKY/WX    TMP DP  RH WIND       PRES   REMARKS
GALLUP         CLOUDY    29  20  69 SW12      29.81S WCI  19          
GRANTS         FAIR      32  18  55 SW8G21    29.82R WCI  25          
SILVER CITY    FAIR      44  14  29 W9        29.83S                  

$$
NMZ407-409-411-412-190200-
SOUTHERN DESERTS
  
CITY           SKY/WX    TMP DP  RH WIND       PRES   REMARKS
DEMING         FAIR      54  10  17 W15       29.81R                  
LAS CRUCES     FAIR      55   9  15 W6        29.84R                  
HOLLOMAN AFB   FAIR      54  14  20 SE13G18   29.82F                  
ALAMOGORDO     FAIR      54  10  17 MISG      29.82R                  
T OR C         FAIR      50   7  17 S13       29.79S                  

$$
NMZ519>523-190200-
CENTRAL VALLEYS/CENTRAL HIGHLANDS
  
CITY           SKY/WX    TMP DP  RH WIND       PRES   REMARKS
ALBUQUERQUE    MOCLDY    30  16  56 E29G43    29.83R WCI  15          
DOUBLE EAGLE   MOCLDY    30  16  55 E16G23    29.85R WCI  19          
MORIARTY ARPT  CLOUDY    22  16  78 E10       29.98R WCI  11          
CLINES CORNERS LGT SNOW  12   8  84 E21G30    29.93S VSB 3/4 WCI  -7  
BELEN          CLOUDY    37  17  42 SE24G31   29.82R WCI  26          
SOCORRO        NOT AVBL                                               

$$
NMZ524>526-539-540-190200-
SOUTHCENTRAL MOUNTAINS
  
CITY           SKY/WX    TMP DP  RH WIND       PRES   REMARKS
RUIDOSO        NOT AVBL                                               

$$
NMZ527>531-190200-
NORTHEAST HIGHLANDS/NORTHEAST PLAINS
  
CITY           SKY/WX    TMP DP  RH WIND       PRES   REMARKS
LAS VEGAS      LGT SNOW  14  12  92 SE6       29.98R FOG     WCI   5  
RATON          LGT SNOW  15  10  80 S6        30.01R WCI   6          
CLAYTON        CLOUDY    14  12  92 SE7       30.13R WCI   4          

$$
NMZ532>537-190200-
EASTCENTRAL PLAINS
  
CITY           SKY/WX    TMP DP  RH WIND       PRES   REMARKS
SANTA ROSA     CLOUDY    19  16  86 N10       30.08S WCI   8          
TUCUMCARI      CLOUDY    24  13  62 NE9       30.13S WCI  14          
CANNON AFB     FAIR      29  10  45 E14       30.12R WCI  18          
CLOVIS AIRPORT FAIR      28  12  51 E14       30.13R WCI  17          

$$
NMZ028-029-538-190200-
SOUTHEAST PLAINS
  
CITY           SKY/WX    TMP DP  RH WIND       PRES   REMARKS
ROSWELL        CLOUDY    41  21  44 E17       30.03R                  
ARTESIA        FAIR      39  21  48 E17G26    30.03R WCI  30          
CARLSBAD       FAIR      41  24  51 E16G23    30.01R                  
HOBBS          CLEAR     32  16  51 NE16G24   30.08R WCI  21          


$$